Regional Weather Roundup
Issued by NWS

Home | Current Version | Previous Version | Graphics & Text | Print | Product List | Glossary On
Versions: 1 2 3 4 5 6 7 8 9 10 11 12 13 14 15 16 17 18 19 20 21 22 23 24 25 26 27
000
ASUS45 KCYS 222010
RWRWY

WYOMING REGIONAL WEATHER ROUNDUP
NATIONAL WEATHER SERVICE CHEYENNE WY
200 PM MDT WED OCT 22 2014

NOTE:  "FAIR" INDICATES FEW OR NO CLOUDS BELOW 12,000 FEET
WITH NO SIGNIFICANT WEATHER AND/OR OBSTRUCTIONS TO VISIBILITY.

WYZ001-222100-
YELLOWSTONE NATIONAL PARK

CITY           SKY/WX    TMP DP  RH WIND       PRES   REMARKS
LK YELLOWSTONE   N/A     40  24  53 VRB6      30.21F
W YELLOWSTONE  NOT AVBL

$$
WYZ002>013-054>058-071-098>099-222100-
NORTHERN WYOMING

CITY           SKY/WX    TMP DP  RH WIND       PRES   REMARKS
JACKSON        NOT AVBL
CODY           SUNNY     57  25  28 W15G21    30.04S
GREYBULL       SUNNY     59  25  27 SE8       30.03F
WORLAND        SUNNY     59  23  25 NE5       30.04F
SHERIDAN       SUNNY     61  25  25 CALM      29.99F
BUFFALO        SUNNY     56  25  30 E7        30.02F
GILLETTE       SUNNY     57  26  30 VRB3      30.03F
HULETT         FAIR      59  27  29 SW13G24   30.03
NEWCASTLE      FAIR      57  25  28 NW12      30.04

$$
WYZ014>020-022>026-101>103-222100-
CENTRAL WYOMING

CITY           SKY/WX    TMP DP  RH WIND       PRES   REMARKS
BIG PINEY      SUNNY     49  17  28 VRB3      30.20F
PINEDALE       CLEAR     45  19  36 N3        30.21S
DUBOIS         FAIR      50  14  23 NW20G28   30.11F
LANDER         SUNNY     56  21  25 E6        30.07F
RIVERTON       SUNNY     56  19  23 W7        30.08F
CASPER         SUNNY     61  18  18 SW15G23   30.07F
DOUGLAS        SUNNY     61  19  19 W16G29    30.07F

$$
WYZ021-027>030-104>119-222100-
SOUTHERN WYOMING

CITY           SKY/WX    TMP DP  RH WIND       PRES   REMARKS
EVANSTON       MOSUNNY   53  16  23 W16G25    30.22F
KEMMERER       CLEAR     50  16  25 W16G23    30.22F
FORT BRIDGER   FAIR      55  16  21 W17G23    30.24F
ROCK SPRINGS   SUNNY     50  24  36 W13       30.20F
DIXON          FAIR      54  37  53 SW3       30.23F
RAWLINS        SUNNY     52  20  28 SW16G25   30.18F
SARATOGA       FAIR      54  28  37 W12G22    30.19F
LARAMIE        SUNNY     55  27  34 W25G35    30.14F
CHEYENNE       PTSUNNY   62  35  36 SW10      30.09F
TORRINGTON     SUNNY     61  25  25 NW8       30.04F
PINE BLUFFS    RAIN      55  37  50 NE10      30.07F

$$



USA.gov is the U.S. government's official web portal to all federal, state and local government web resources and services.